Location: Middelsbur
(53.6609°N, 7.5020°E)
Time: 00:20:07
(UTC+00:00)

Okean 3 Rocket - Pass Details

Date: 06 July 2020
Orbit: 614 x 646 km, 82.5° (Epoch: 03 August)

Event Time Altitude Azimuth Distance (km) Brightness Sun altitude
Exits shadow 23:07:34 18° 200° (SSW) 1,538 5.1 -13.6°
Maximum altitude 23:10:48 72° 282° (WNW) 665 3.7 -13.6°
Drops below altitude 10° 23:15:15 10° 8° (N) 2,006 7.5 -13.7°
Sets 23:17:30 0° 11° (N) 2,913 8.7 -13.7°
